Terminal Aerodrome Forecast
Issued by NWS

Home | Current Version | Previous Version | Text Only | Print | Product List | Glossary On
Versions: 1 2 3 4 5 6 7 8 9 10 11 12 13 14 15 16
000
FTUS46 KLOX 052347
TAFBUR
TAF
KBUR 052347Z 0600/0624 18010KT P6SM SKC
     FM060200 13006KT P6SM SKC
     FM060800 VRB03KT 5SM BR OVC010
     FM061700 13006KT 6SM BR BKN012
     FM061900 17006KT 6SM HZ SKC
     FM062300 18011KT P6SM SKC=

USA.gov is the U.S. government's official web portal to all federal, state and local government web resources and services.